Volver al catálogo

SL-12 DEB

ActivoLEO
NORAD 18766·DEBRIS·🇷🇺 Russia

Lanzado May 30, 1985 desde Baikonur Cosmodrome

Loading…

Próximos Pases (próximas 24 horas)

TLE

ActualizadoSource: Space-Track

Época: Sep 14, 2026, 03:09 UTC

1 18766U 85042J   26257.13187462  .00002469  00000-0  71762-3 0  9998
2 18766  66.5615 147.0486 0043119 168.6614 349.9003 14.45444476  2743

Sigue SL-12 DEB en tiempo real con AllMySat

Download on the App Store